Theta_e
291 291 291 291 291 291 291 291 292 293 292 292 294 295 294 295 296 296 295 293 295 295
287 287 286 287 287 287 288 290 290 290 289 290 290 291 291 291 292 292 292 291 292 291
285 285 285 285 285 285 286 287 287 287 288 287 287 288 289 288 290 289 290 290 289 290
283 283 283 283 283 284 284 285 285 286 286 286 286 287 287 287 288 288 288 289 288 287
282 282 281 281 281 282 283 284 284 285 284 284 285 285 285 286 286 286 286 286 286 284
280 280 280 280 280 281 281 282 283 283 283 283 284 283 284 285 285 284 284 284 282 282
279 279 279 280 280 280 281 281 281 282 283 283 283 282 283 283 283 283 283 283 283 281
278 278 278 279 279 279 279 280 280 280 281 282 282 282 280 281 281 280 280 280 280 280
278 278 278 278 278 278 278 279 279 278 278 279 281 282 282 280 278 278 278 277 278 278
277 277 277 277 277 277 276 277 277 277 277 277 279 282 280 280 278 277 276 276 276 277
277 276 276 277 276 276 276 276 276 276 277 276 279 281 279 279 277 276 276 275 275 275
276 275 275 275 275 276 276 276 276 276 275 275 276 280 279 276 275 275 274 275 275 274
276 275 275 275 275 275 276 276 276 275 275 274 274 278 279 276 275 273 272 273 273 274
275 274 274 274 274 274 274 274 273 273 273 273 273 275 277 277 274 273 271 271 271 271
Wind_Speed
9 6 6 8 6 6 6 5 6 7 7 8 8 8 8 7 7 6 7 10 8 6
7 8 6 7 6 5 4 5 6 6 7 8 8 8 8 7 7 7 7 8 8 7
6 6 6 6 6 6 5 5 6 6 8 9 9 8 7 6 7 7 5 5 8 8
6 6 6 5 5 5 5 5 6 7 9 9 9 9 7 8 8 8 7 8 10 9
6 6 6 5 5 5 5 6 6 8 9 9 8 7 8 8 7 8 9 8 9 8
5 5 5 5 5 5 5 6 6 8 8 8 8 7 7 7 7 8 8 9 9 9
5 5 5 5 5 5 5 6 6 7 8 8 8 8 7 8 8 8 9 8 8 8
6 6 5 5 5 5 5 6 6 6 7 8 8 7 6 6 7 7 7 7 7 8
6 6 6 5 5 6 5 5 5 7 6 6 6 13 13 8 6 7 7 6 6 5
7 6 6 5 5 6 6 5 6 6 6 6 5 13 12 11 7 7 6 7 7 6
8 8 7 7 7 6 4 6 5 6 6 5 6 13 12 11 5 6 7 7 7 8
7 8 7 8 6 5 5 5 6 7 6 6 4 12 14 9 5 7 7 6 7 8
7 7 8 8 7 4 4 6 5 7 6 6 4 11 12 9 4 5 5 4 5 9
7 7 6 7 5 4 6 6 4 6 4 5 4 5 11 12 6 5 4 3 4 6
Wind_Direction
51 66 63 65 71 63 66 53 36 50 54 45 42 50 56 53 58 53 56 57 46 57
52 60 63 54 59 57 42 64 44 50 56 56 51 51 60 52 53 53 56 48 56 54
61 61 60 57 55 52 42 45 54 55 63 54 49 46 64 65 53 61 57 62 59 56
80 68 63 64 51 53 50 44 59 65 74 63 53 47 50 55 61 66 64 59 60 56
90 84 76 66 57 50 57 49 56 72 71 67 65 57 60 65 61 62 60 63 63 52
98 95 95 87 72 66 73 69 72 87 81 73 66 63 66 76 75 68 60 57 58 57
121 119 110 103 93 85 82 88 82 95 86 76 67 61 52 65 69 68 62 54 61 56
137 126 117 112 102 88 94 96 91 88 89 81 70 64 56 62 74 72 73 61 53 64
137 130 124 118 118 108 100 94 93 95 81 80 71 67 71 70 71 68 65 63 54 70
138 129 127 125 113 112 107 99 88 94 101 80 78 75 75 74 69 70 63 57 49 49
148 146 141 137 134 127 126 121 116 103 97 78 70 69 67 71 65 70 61 56 45 41
153 149 146 143 141 128 134 120 123 115 109 99 43 67 69 59 48 64 48 50 48 37
156 146 153 150 135 126 145 130 132 126 118 112 67 69 58 77 56 57 36 34 44 25
143 140 151 126 125 145 134 123 115 125 108 113 83 60 58 57 54 51 39 18 17 14